Terminal Aerodrome Forecast
Issued by NWS Quad Cities IA IL

Home | Current Version | Previous Version | Text Only | Print | Product List | Glossary On
Versions: 1 2 3 4 5 6 7 8 9 10 11 12 13 14 15 16 17 18 19 20 21 22 23 24 25 26 27 28 29 30 31 32 33
000
FTUS43 KDVN 251400 AAB
TAFDBQ
TAF AMD
KDBQ 251403Z 2514/2612 05016G25KT 3SM -SN OVC015
      TEMPO 2514/2516 1SM -SN BR BKN008
     FM251600 03018G28KT P6SM OVC015
     FM252000 02013KT P6SM BKN035
     FM260300 36004KT P6SM BKN250=

USA.gov is the U.S. government's official web portal to all federal, state and local government web resources and services.